Regional Weather Roundup
Issued by NWS

Home | Current Version | Previous Version | Text Only | Print | Product List | Glossary On
Versions: 1 2 3 4 5 6 7 8 9 10 11 12 13 14 15 16 17 18 19 20 21 22 23 24 25 26 27 28 29 30 31 32 33 34 35 36 37 38 39 40 41 42 43 44 45 46 47 48 49 50
286
ASUS43 KMKX 221621
RWRWI

WISCONSIN REGIONAL WEATHER ROUNDUP
NATIONAL WEATHER SERVICE MILWAUKEE/SULLIVAN WI
1100 AM CDT SAT JUL 22 2017

NOTE: "FAIR" INDICATES FEW OR NO CLOUDS BELOW 12,000 FEET WITH NO
SIGNIFICANT WEATHER AND/OR OBSTRUCTIONS TO VISIBILITY.

WIZ001-002-006>008-014>016-023>028-221700-
NORTHWEST WISCONSIN

CITY           SKY/WX    TMP DP  RH WIND       PRES   REMARKS
SUPERIOR ARPT  NOT AVBL
ASHLAND        CLOUDY    72  65  78 NW6       29.82S
HAYWARD        CLOUDY    72  65  78 SW3       29.83S
SIREN          SUNNY     75  66  73 W6        29.84R
CUMBERLAND     MOSUNNY   73  64  73 SW6       29.84R
RICE LAKE      MOSUNNY   76  67  74 SW6       29.85R
CHETEK         MOSUNNY   77  68  74 CALM      29.84R
LADYSMITH      CLOUDY    76  65  67 W5        29.86R
EAU CLAIRE     SUNNY     78  66  66 S7        29.83F HX  80
MENOMONIE      SUNNY     79  67  68 CALM      29.83F HX  81
NEW RICHMOND   SUNNY     80  67  64 SW3       29.83S HX  82
OSCEOLA        CLOUDY    79  67  67 S5        29.85R HX  81
$$

WIZ003>005-009-010-017-018-221700-
NORTH CENTRAL WISCONSIN

CITY           SKY/WX    TMP DP  RH WIND       PRES   REMARKS
MANITOWISH WTR CLOUDY    75  66  74 W10       29.84S
ARBOR VITAE    MOSUNNY   77  67  70 CALM      29.84S
WOODRUFF       MOSUNNY   77  67  70 CALM      29.84S
RHINELANDER    MOSUNNY   76  65  68 VRB3      29.85F
EAGLE RIVER    PTSUNNY   75  63  65 CALM      29.84F
LAND O LAKES   PTSUNNY   76  63  64 W5        29.86F
PHILLIPS       MOSUNNY   76  66  71 W3        29.84R
TOMAHAWK         N/A     75  63  66 CALM      29.84F
MEDFORD        SUNNY     75  65  72 CALM      29.84F
MERRILL        SUNNY     76  67  73 W3        29.84F
$$

WIZ029-030-035-036-043>047-221700-
CENTRAL WISCONSIN

CITY           SKY/WX    TMP DP  RH WIND       PRES   REMARKS
WAUSAU         PTSUNNY   75  66  73 NW7       29.83F
MOSINEE        PTSUNNY   73  70  88 NW7       29.86F
MARSHFIELD     PTSUNNY   77  67  71 NW6       29.85F
STEVENS POINT  CLOUDY    71  68  88 CALM      29.86S
WAUPACA        CLOUDY    75  67  76 CALM      29.85S
WAUTOMA        CLOUDY    72  66  83 CALM      29.86R
WISC RAPIDS    CLOUDY    74  69  85 CALM      29.87R
CAMP DOUGLAS   CLOUDY    70  70 100 N5        29.86R
$$

WIZ011>013-019>022-031-037>040-048>050-221700-
NORTHEAST WISCONSIN

CITY           SKY/WX    TMP DP  RH WIND       PRES   REMARKS
ANTIGO         CLOUDY    73  66  77 NW8       29.86F
SHAWANO        CLOUDY    76  64  67 CALM      29.83F
OCONTO         CLOUDY    75  64  67 CALM      29.82F
STURGEON BAY     N/A     73  65  75 VRB3      29.84F
GREEN BAY      CLOUDY    77  66  68 CALM      29.84R
MANITOWOC      CLOUDY    73  65  75 CALM      29.85R
APPLETON       PTSUNNY   72  63  73 CALM      29.84R
CLINTONVILLE   CLOUDY    73  63  68 CALM      29.84S
OSHKOSH        CLOUDY    72  66  81 N5        29.85R
$$

WIZ032>034-041-042-053>061-221700-
SOUTHWEST WISCONSIN

CITY           SKY/WX    TMP DP  RH WIND       PRES   REMARKS
LA CROSSE      CLOUDY    75  71  87 NW5       29.86R
SPARTA         CLOUDY    69  67  93 N5        29.87R
VIROQUA        CLOUDY    72  71  98 CALM      29.88S
BOSCOBEL       CLOUDY    77  71  82 VRB3      29.85S
PRAIRIE DU CHI MOSUNNY   77  69  77 CALM      29.83F
PLATTEVILLE    PTSUNNY   78  74  87 W8        29.86R HX  81
$$

WIZ056-057-062-063-064-067-068-221700-
SOUTH CENTRAL WISCONSIN

CITY           SKY/WX    TMP DP  RH WIND       PRES   REMARKS
REEDSBURG      CLOUDY    71  71 100 N7        29.86R
BARABOO/DELLS  CLOUDY    70  68  94 NW3       29.86S
LONE ROCK      CLOUDY    74  71  91 W6        29.85R
MINERAL POINT  CLOUDY    77  73  88 W5        29.86S
MADISON        CLOUDY    73  70  90 VRB5      29.84S
MIDDLETON      CLOUDY    74  74  98 NW5       29.85S
WATERTOWN      CLOUDY    72  72 100 W6        29.85R
MONROE         PTSUNNY   77  68  73 NW9       29.85S
JANESVILLE     PTSUNNY   81  70  69 NW13      29.84S HX  84
$$

WIZ051-052-058>065-066-070>072-221700-
SOUTHEAST WISCONSIN

CITY           SKY/WX    TMP DP  RH WIND       PRES   REMARKS
MILWAUKEE      PTSUNNY   77  69  76 NW10      29.82S
WAUKESHA       CLOUDY    73  68  83 NW6       29.85R
MILWAUKEE/TIMM CLOUDY    73  66  78 W6        29.83S
RACINE         CLOUDY    77  70  79 W8        29.84S
KENOSHA        CLOUDY    78  69  73 W10       29.83F HX  80
FOND DU LAC    CLOUDY    71  65  81 N5        29.86R
SHEBOYGAN      CLOUDY    71  70  96 NE6       29.84R
WEST BEND      CLOUDY    72  68  88 NW9       29.84R
JUNEAU         CLOUDY    71  68  91 NW6       29.86R
$$

LSZ147-162-221700-
LAKE SUPERIOR

STATION/POSITION TIME  TEMP    WIND        PRES    WAVE
                       AIR SEA DIR/SP/G            HT/PER
                 (UTC) (F)     (DEG/KT/KT) (MB)    (FT/S)
W MID LAKE BUOY  1550   49 47   40/  6/  6 1010.1F   2/ 4
DEVILS ISLAND    1600   56      60/  5/  6 1010.6R
PORT WING        1525   60     350/  5/  8 1011.2
SAXON HARBOR     1600   63      40/ 10/ 13 1009.8
$$

LMZ867-665-643>646-221700-
LAKE MICHIGAN

STATION/POSITION TIME  TEMP    WIND        PRES    WAVE
                       AIR SEA DIR/SP/G            HT/PER
                 (UTC) (F)     (DEG/KT/KT) (MB)    (FT/S)
CHAMBERS ISLAND  1540   73      CALM  /  3 1009.8F
S GREEN BAY BUOY 1600   72 74   60/  6/  6 1010.0
N MID LAKE BUOY  1550   68 67   30/  4/  4 1010.6F   1
NORTHPORT PIER   1540   73      CALM  /  1 1010.5S
KEWAUNEE LAKESHO 1554   74      30/  2/  5 1009.7R
SHEBOYGAN LAKESH 1600   66      20/  9/  9 1010.0R
PORT WASHINGTON  1540   76     300/  6/ 11 1010.5S
ATWATER BUOY     1509   69 68   40/  6/  8 1010.1R
MILWAUKEE LAKESH 1600   70      50/  3/  4   N/A
S MID LAKE BUOY  1550   71 70  310/  8/ 10 1010.0R   1/ 5
KENOSHA   LAKESH 1600   77     290/ 11/ 16 1009.8
$$

TC  - TEMPERATURE IN CELSIUS
VSB - VISIBILITY IN STATUTE MILES
WCI - WIND CHILL INDEX
HX  - HEAT INDEX





USA.gov is the U.S. government's official web portal to all federal, state and local government web resources and services.